AirNav   Jet Aviation Boston
 
 1646 users online  

49F Rankin Airport
Rankin, Texas, USA

GOING TO RANKIN?


FAA INFORMATION EFFECTIVE 19 JULY 2018

Location

FAA Identifier: 49F
Lat/Long: 31-13-37.3000N / 101-57-10.5000W
31-13.621667N / 101-57.175000W
31.2270278 / -101.9529167
(estimated)
Elevation: 2543 ft. / 775.1 m (surveyed)
Variation: 09E (1985)
From city: 1 mile W of RANKIN, TX
Time zone: UTC -5 (UTC -6 during Standard Time)
Zip code: 79755

Airport Operations

Airport use: Open to the public
Control tower: no
ARTCC: HOUSTON CENTER
FSS: SAN ANGELO FLIGHT SERVICE STATION
NOTAMs facility: SJT (NOTAM-D service available)
Attendance: UNATNDD
AIRPORT GATE LOCKED. FOR ACCESS CALL SHERIFF'S OFFICE 432-693-2411.
Wind indicator: yes
Segmented circle: no

Airport Communications

CTAF: 122.9

Airport Services

Airframe service: NONE
Powerplant service: NONE

Runway Information

Runway 17/35

Dimensions: 3000 x 35 ft. / 914 x 11 m
Surface: gravel/dirt, in good condition
RUNWAY 17  RUNWAY 35
Latitude: 31-13.869785N31-13.374853N
Longitude: 101-57.178738W101-57.172263W
Elevation: 2541.0 ft.2509.0 ft.
Gradient: 1.1% UP
Traffic pattern: leftleft
Runway heading: 170 magnetic, 179 true350 magnetic, 359 true
Obstructions: 60 ft. hill, 1500 ft. from runway, 25:1 slope to clear20 ft. trees, 368 ft. from runway, 8:1 slope to clear

Airport Ownership and Management from official FAA records

Ownership: Publicly-owned
Owner: UPTON COUNTY
UPTON CO COURTHOUSE
RANKIN, TX 79778
Phone 432-693-2321
Manager: CARL ABSHER
PO BOX 824
MC CAMEY, TX 79752
Phone (432) 208-2869

Airport Operational Statistics

Aircraft operations: 24/year *
100% transient general aviation
* for 12-month period ending 25 January 2018

Instrument Procedures

There are no published instrument procedures at 49F.

Some nearby airports with instrument procedures:

E41 - Reagan County Airport (25 nm E)
KMAF - Midland International Air and Space Port Airport (45 nm N)
KODO - Odessa Airport-Schlemeyer Field (47 nm NW)
KOZA - Ozona Municipal Airport (49 nm SE)
KMDD - Midland Airpark (49 nm N)
 
Loc | Ops | Rwys | IFR | FBO | Links
Com | Nav | Svcs | Stats | Notes

Chandler Aviation LLC
 
Area around 49F (Rankin Airport)
 
Road maps at: MapQuest Bing Google
 
Aerial photo
No photo
 
Sectional chart

 
Airport distance calculator
Flying to Rankin Airport? Find the distance to fly.

From to 49F

Sunrise and sunset
Times for 19-Jul-2018
 Local
(UTC-5)
 Zulu
(UTC)
Morning civil twilight06:3011:30
Sunrise06:5711:57
Sunset20:5101:51
Evening civil twilight21:1802:18

Current date and time
Zulu (UTC)  19-Jul-2018 15:35:08
Local (UTC-5)  19-Jul-2018 10:35:08
 
METAR
KMAF 
45nm N 
191453Z 20010KT 10SM CLR 33/12 A3003 RMK AO2 SLP110 T03280117 51010
KODO 
47nm NW 
191453Z AUTO 20013KT 10SM CLR 32/10 A3004 RMK AO2 SLP114 T03170100 51010
KOZA 
49nm SE 
191515Z AUTO 19016G20KT 10SM CLR 32/13 A3004 RMK AO2
KMDD 
49nm N 
191515Z AUTO 20010KT 10SM 35/12 A3003 RMK AO2 T03460117
TAF
KMAF 
45nm N 
191120Z 1912/2012 17011KT P6SM FEW200
NOTAMs
Click for the latest NOTAMs
NOTAMs are issued by the DoD/FAA and will open in a separate window not controlled by AirNav.

 

 
 

Would you like to see your business listed on this page?

 If your business provides an interesting product or service to pilots, flight crews, aircraft, or users of the Rankin Airport, you should consider listing it here.  To start the listing process, click on the button below
 
Add a business
 

Other Pages about Rankin Airport

Update a link
 
Copyright © AirNav, LLC. All rights reserved. Privacy Policy  Contact